Home   Weather   Copenhagen   Past weeks

Flag for Denmark Past Weather in Copenhagen, Denmark — Yesterday and Last 2 Weeks

Now
61 °F

Scattered showers. Scattered clouds.


Feels Like: 61 °F
Forecast: 53 / 67 °F
Wind: 8 mph from Southwest

Location: Koebenhavn-Kastrup Airport

Current Time: Aug 20, 2017 at 9:25:31 pm

Latest Report: Aug 20, 2017 at 8:20 pm


Visibility: N/A

Pressure: 29.98 "Hg

Humidity: 83%

Dew Point: 55 °F

Location of CopenhagenLocation

Past Weather in Copenhagen — Graph

°F

Copenhagen Temperature Yesterday

Maximum temperature yesterday: 66 °F (at 12:19 pm)
Minimum temperature yesterday: 59 °F (at 2:50 am)
Average temperature yesterday: 62 °F

High & Low Weather Summary for the Past Weeks

 TemperatureHumidityPressure
High72 °F (Aug 8, 12:50 pm)100% (Aug 12, 10:20 pm)30.27 "Hg (Aug 12, 10:20 pm)
Low48 °F (Aug 14, 3:20 am)46% (Aug 13, 3:50 pm)29.71 "Hg (Aug 19, 2:20 am)
Average63 °F78%29.99 "Hg
* Reported Aug 5 7:20 pm — Aug 20 7:50 pm, Copenhagen. Weather by CustomWeather, © 2017

Note: Actual official high and low records may vary slightly from our data, if they occured in-between our weather recording intervals... More about our weather records

Advertising

Copenhagen Weather History for the Previous 24 Hours

Scroll right to see more
 ConditionsComfort  
Time TempWeatherWind HumidityBarometerVisibility
7:50 pm
Sun, Aug 20
63 °FScattered clouds.10 mph73%29.95 "HgN/A
7:20 pm63 °FScattered clouds.12 mph77%29.95 "HgN/A
6:50 pm63 °FScattered clouds.13 mph73%29.95 "HgN/A
6:20 pm63 °FScattered clouds.13 mph68%29.95 "HgN/A
5:50 pm63 °FScattered clouds.15 mph68%29.98 "HgN/A
5:20 pm66 °FPartly sunny.15 mph60%29.95 "HgN/A
4:50 pm66 °FPartly sunny.15 mph68%29.95 "HgN/A
4:20 pm63 °FPartly sunny.10 mph83%29.95 "HgN/A
3:50 pm63 °FPartly sunny.15 mph77%29.95 "HgN/A
2:50 pm64 °FBroken clouds.17 mph73%29.95 "HgN/A
2:20 pm63 °FLight rain. Broken clouds.17 mph83%29.95 "HgN/A
1:50 pm64 °FPartly sunny.21 mph68%29.95 "HgN/A
1:20 pm64 °FSunny.21 mph73%29.95 "Hg10 mi
12:53 pm63 °FLight rain. Clear.21 mph77%29.95 "HgN/A
12:20 pm63 °FLight rain. Partly sunny.18 mph77%29.95 "HgN/A
11:50 am66 °FScattered clouds.18 mph68%29.95 "HgN/A
11:20 am64 °FSunny.18 mph68%29.95 "Hg10 mi
10:50 am63 °FScattered clouds.16 mph73%29.95 "HgN/A
10:20 am63 °FScattered clouds.17 mph73%29.95 "HgN/A
9:50 am63 °FScattered clouds.16 mph77%29.95 "HgN/A
9:20 am63 °FPassing clouds.17 mph77%29.95 "HgN/A
8:50 am61 °FScattered clouds.15 mph83%29.95 "HgN/A
8:20 am61 °FPassing clouds.15 mph77%29.95 "HgN/A
7:50 am59 °FScattered clouds.13 mph88%29.95 "HgN/A
7:20 am59 °FScattered clouds.12 mph82%29.95 "HgN/A
6:57 am57 °FScattered clouds.12 mph88%29.95 "HgN/A
6:20 am57 °FSunny.9 mph88%29.95 "Hg10 mi
5:50 am57 °FScattered clouds.13 mph88%29.95 "HgN/A
5:20 am57 °FClear.12 mph88%29.95 "Hg10 mi
4:50 am57 °FClear.12 mph88%29.95 "Hg10 mi
4:20 am57 °FClear.9 mph88%29.95 "Hg10 mi
3:50 am57 °FClear.10 mph88%29.95 "Hg10 mi
3:20 am57 °FPassing clouds.9 mph88%29.95 "HgN/A
2:50 am57 °FPassing clouds.12 mph88%29.95 "HgN/A
2:20 am57 °FPassing clouds.13 mph88%29.95 "HgN/A
1:50 am59 °FClear.8 mph82%29.95 "Hg10 mi
1:20 am57 °FClear.10 mph88%29.95 "Hg10 mi
12:50 am59 °FClear.12 mph82%29.95 "Hg10 mi
12:20 am59 °FClear.13 mph82%29.95 "Hg10 mi
11:50 pm
Sat, Aug 19
59 °FClear.13 mph77%29.95 "Hg10 mi
11:20 pm59 °FClear.13 mph82%29.95 "Hg10 mi
10:50 pm59 °FClear.13 mph82%29.92 "Hg10 mi
10:18 pm59 °FClear.15 mph82%29.92 "Hg10 mi
9:50 pm59 °FClear.14 mph82%29.92 "Hg10 mi
9:20 pm61 °FClear.13 mph77%29.92 "Hg10 mi
Weather by CustomWeather, © 2017

See weather overviewHow to use our weather pages